Volver al catálogo

QIANKUN-1

ActivoCienciaSSO
NORAD 57422·PAYLOAD·🇨🇳 China

Lanzado Jul 22, 2023 desde Jiuquan Satellite Launch Center

Loading…

Próximos Pases (próximas 24 horas)

TLE

EnvejeciendoSource: Space-Track

Época: Sep 9, 2026, 00:07 UTC

1 57422U 23103B   26252.00554986 -.00001588  16302-5 -16489-5 0  9997
2 57422  96.1287 290.7042 0014789  34.4271 325.7968 16.04058583180750

Sigue QIANKUN-1 en tiempo real con AllMySat

Download on the App Store